Total_Precipitation_Accumulation
1.04 0.95 0.78 0.65 0.75 0.77 0.66 0.62 0.60 0.58 0.58 0.62 0.65 0.55 0.44 0.48 0.66 0.96 1.21 1.02 1.04 0.94 0.80 0.76 0.60 0.50 0.47 0.38 0.35 0.36 0.34 0.36 0.39 0.20 0.10 0.07 0.08 0.09 0.07 0.06 0.06 0.04 0.04
1.08 1.18 1.31 0.97 1.20 1.64 1.65 1.29 1.50 1.50 1.17 0.93 0.73 0.49 0.32 0.23 0.31 0.58 0.93 0.97 0.80 0.84 0.83 0.72 0.63 0.61 0.61 0.50 0.39 0.32 0.26 0.20 0.26 0.16 0.08 0.07 0.06 0.05 0.05 0.04 0.02 0.02 0.04
1.66 1.45 1.28 1.02 1.25 1.09 0.75 0.56 0.46 0.55 0.51 0.31 0.23 0.19 0.14 0.09 0.13 0.37 0.57 0.85 0.87 0.65 0.69 0.73 0.57 0.46 0.40 0.34 0.28 0.23 0.17 0.18 0.21 0.24 0.14 0.09 0.07 0.05 0.05 0.04 0.04 0.04 0.04
1.23 1.37 1.03 0.63 0.53 0.46 0.36 0.28 0.24 0.21 0.20 0.18 0.17 0.23 0.17 0.08 0.15 0.30 0.40 0.56 0.74 0.71 0.61 0.64 0.60 0.48 0.33 0.28 0.28 0.23 0.22 0.21 0.18 0.16 0.12 0.10 0.09 0.05 0.11 0.09 0.10 0.09 0.10
0.84 1.31 1.26 0.71 0.36 0.26 0.18 0.18 0.19 0.21 0.28 0.24 0.23 0.16 0.19 0.19 0.24 0.30 0.34 0.43 0.58 0.68 0.63 0.59 0.43 0.47 0.46 0.38 0.36 0.29 0.28 0.30 0.31 0.30 0.25 0.20 0.17 0.21 0.25 0.28 0.36 0.31 0.37
0.43 0.83 1.10 0.89 0.31 0.25 0.23 0.26 0.22 0.20 0.24 0.27 0.30 0.31 0.34 0.37 0.54 0.42 0.28 0.17 0.18 0.27 0.33 0.34 0.34 0.36 0.27 0.32 0.32 0.32 0.29 0.29 0.29 0.29 0.28 0.27 0.21 0.23 0.28 0.37 0.42 0.47 0.49
0.41 0.47 0.42 0.57 0.42 0.21 0.23 0.22 0.22 0.25 0.29 0.27 0.37 0.47 0.51 0.51 0.70 0.44 0.42 0.20 0.20 0.21 0.22 0.25 0.23 0.37 0.51 0.20 0.31 0.33 0.30 0.42 0.42 0.37 0.34 0.42 0.60 0.71 0.78 0.81 0.76 0.73 0.67
0.41 0.45 0.49 0.39 0.42 0.24 0.22 0.22 0.27 0.27 0.34 0.39 0.41 0.39 0.32 0.35 0.54 0.54 0.60 0.29 0.19 0.18 0.17 0.20 0.21 0.22 0.41 0.49 0.27 0.33 0.41 0.58 0.77 0.75 0.83 1.02 1.01 0.80 0.69 0.75 0.81 0.85 0.83
0.44 0.56 0.60 0.55 0.47 0.33 0.30 0.30 0.38 0.45 0.44 0.38 0.30 0.27 0.25 0.27 0.56 0.48 0.46 0.21 0.20 0.24 0.29 0.36 0.44 0.27 0.68 0.63 0.33 0.34 0.45 0.65 0.98 0.77 0.59 0.70 0.70 0.55 0.48 0.52 0.70 1.18 1.54
0.41 0.47 0.56 0.65 0.67 0.74 0.73 0.57 0.43 0.35 0.29 0.29 0.32 0.31 0.48 0.27 0.59 0.49 0.41 0.18 0.20 0.21 0.28 0.45 0.86 0.44 0.51 0.38 0.24 0.16 0.42 0.80 0.67 0.69 0.74 0.83 0.81 0.86 1.00 0.83 0.83 1.30 1.67
0.53 0.57 0.65 0.77 0.92 0.90 0.73 0.60 0.51 0.40 0.34 0.31 0.29 0.29 0.34 0.44 0.55 0.66 0.59 0.37 0.32 0.40 0.47 0.50 0.65 1.04 0.57 0.60 0.67 0.54 1.15 1.22 1.20 0.94 0.89 0.95 0.94 0.93 0.96 0.95 0.91 0.95 1.10
0.67 0.65 0.78 0.83 0.90 0.97 0.97 0.88 0.69 0.56 0.49 0.40 0.34 0.35 0.36 0.46 0.65 0.62 0.53 0.51 0.63 0.46 0.66 0.65 0.89 0.96 0.59 0.65 0.81 1.11 1.31 1.16 1.10 1.30 1.41 1.50 1.48 1.37 1.25 1.10 0.97 0.89 0.87
0.70 0.79 0.76 0.70 0.64 0.58 0.63 0.78 0.88 0.86 0.74 0.59 0.46 0.44 0.45 0.44 0.55 0.72 0.66 0.70 0.78 0.72 0.95 1.16 1.17 0.97 0.86 0.94 1.11 1.18 1.21 1.25 1.41 1.55 1.59 1.54 1.39 1.25 1.05 0.91 0.78 0.63 0.49
0.17 0.25 0.27 0.31 0.36 0.33 0.39 0.44 0.46 0.54 0.65 0.77 0.82 0.81 0.75 0.70 0.65 0.60 0.56 0.56 0.67 0.80 1.09 1.21 1.19 1.12 1.09 1.17 1.21 1.21 1.22 1.30 1.38 1.43 1.38 1.25 1.07 0.90 0.80 0.79 0.72 0.58 0.44
0.14 0.17 0.18 0.20 0.24 0.26 0.31 0.39 0.37 0.52 0.58 0.62 0.74 0.79 0.85 1.01 1.27 1.25 1.19 1.23 1.28 1.40 1.42 1.51 1.53 1.50 1.48 1.44 1.34 1.24 1.16 1.09 0.98 0.90 0.80 0.70 0.59 0.46 0.34 0.24 0.26 0.33 0.48
0.17 0.19 0.24 0.18 0.19 0.21 0.22 0.33 0.52 0.58 0.55 0.62 0.70 0.72 1.02 1.24 1.35 1.30 1.30 1.31 1.32 1.30 1.25 1.26 1.17 1.06 0.96 0.86 0.78 0.71 0.64 0.60 0.52 0.43 0.40 0.36 0.36 0.34 0.34 0.36 0.34 0.33 0.37
0.31 0.28 0.29 0.31 0.33 0.36 0.36 0.35 0.49 0.68 0.74 0.90 0.99 1.01 1.00 1.12 1.01 0.94 0.89 0.82 0.82 0.75 0.85 0.82 0.76 0.70 0.62 0.52 0.47 0.41 0.35 0.26 0.25 0.34 0.34 0.30 0.31 0.32 0.29 0.27 0.24 0.26 0.25
0.97 0.97 0.89 0.87 0.93 1.06 1.18 1.29 1.34 1.37 1.36 1.44 1.42 1.25 1.19 1.13 1.05 0.96 0.84 0.67 0.70 0.62 0.60 0.52 0.46 0.38 0.30 0.25 0.20 0.18 0.16 0.18 0.22 0.20 0.21 0.21 0.22 0.23 0.25 0.19 0.16 0.15 0.11
1.66 1.78 1.76 1.70 1.61 1.43 1.27 1.16 1.12 1.12 1.12 1.16 1.14 1.04 0.97 0.85 0.71 0.62 0.53 0.59 0.54 0.43 0.34 0.28 0.22 0.17 0.16 0.16 0.17 0.18 0.19 0.20 0.18 0.18 0.16 0.15 0.16 0.20 0.21 0.17 0.13 0.11 0.12
1.07 1.01 0.90 0.85 0.83 0.78 0.75 0.69 0.66 0.63 0.60 0.57 0.54 0.52 0.42 0.33 0.31 0.25 0.23 0.25 0.23 0.20 0.16 0.15 0.12 0.11 0.12 0.13 0.14 0.14 0.15 0.13 0.13 0.13 0.12 0.12 0.11 0.12 0.14 0.15 0.16 0.15 0.13
0.66 0.65 0.61 0.56 0.54 0.50 0.46 0.40 0.36 0.33 0.31 0.28 0.28 0.20 0.13 0.15 0.18 0.16 0.14 0.15 0.15 0.14 0.14 0.14 0.11 0.13 0.13 0.14 0.15 0.17 0.16 0.15 0.15 0.16 0.16 0.15 0.16 0.20 0.17 0.20 0.18 0.15 0.12
0.38 0.34 0.29 0.25 0.23 0.22 0.20 0.19 0.19 0.18 0.15 0.14 0.13 0.11 0.09 0.13 0.15 0.15 0.15 0.14 0.11 0.10 0.13 0.19 0.21 0.17 0.18 0.21 0.23 0.26 0.22 0.20 0.21 0.25 0.25 0.22 0.22 0.22 0.24 0.25 0.25 0.25 0.20
0.16 0.14 0.12 0.12 0.12 0.12 0.12 0.13 0.14 0.17 0.19 0.19 0.18 0.15 0.11 0.11 0.10 0.10 0.12 0.16 0.22 0.28 0.27 0.30 0.33 0.29 0.24 0.26 0.30 0.32 0.31 0.22 0.22 0.28 0.30 0.22 0.19 0.21 0.24 0.22 0.20 0.22 0.18
0.10 0.09 0.09 0.10 0.10 0.11 0.13 0.12 0.12 0.12 0.16 0.21 0.23 0.23 0.22 0.23 0.25 0.26 0.31 0.37 0.41 0.42 0.40 0.41 0.41 0.38 0.36 0.34 0.32 0.29 0.27 0.24 0.25 0.25 0.30 0.32 0.24 0.19 0.24 0.23 0.20 0.20 0.20
0.07 0.07 0.07 0.09 0.12 0.14 0.17 0.17 0.19 0.21 0.22 0.22 0.22 0.24 0.23 0.27 0.32 0.33 0.33 0.28 0.27 0.27 0.28 0.31 0.35 0.36 0.37 0.40 0.43 0.42 0.38 0.33 0.32 0.33 0.40 0.36 0.28 0.28 0.29 0.26 0.23 0.26 0.24
0.07 0.09 0.12 0.15 0.18 0.20 0.24 0.28 0.30 0.31 0.32 0.32 0.35 0.36 0.34 0.29 0.23 0.19 0.17 0.15 0.15 0.15 0.15 0.18 0.18 0.17 0.18 0.19 0.22 0.27 0.26 0.27 0.32 0.35 0.38 0.38 0.35 0.32 0.32 0.29 0.25 0.29 0.30